Погода в Могоче

Хотите узнать прогноз погоды в Могоче? Тогда Вам сюда: Погода в Могоче

Поиск расширенной информации на нашем сайте:

Полезная информация:

Новости сайта



02.01.2020
Опубликован Долгосрочный прогноз погоды по городам России и ближнего зарубежья на январь 2020 года.
Карты: Прогноз на январь и февраль 2020 года, Сравнение прогнозируемой аномалии приземной температуры воздуха на январь 2020 года по разным моделям.




Погода в Могоче - сегодня

Время (UTC), дата Ветер
(°,м/с) 
Видим.   Явления Облачность Т
(°С)
Тd
(°С)
f(%) Тe
(°С)
Pmin
(гПа)
dP
(гПа)
Po
(мм)
O2
(г/м3)
Тmin Tmax R s Состояние
почвы
00 30.11.20 320 (СЗ) 20000 м    ясно 
-21.6 -25.1 73 -22  1037.6  0.8  715  315  -22.6      равномерный
сухой снег
100% 
03 30.11.20 тихо ()   20000 м    ясно 
-16.2 -22.2 60 -16  1035.6  0.1  715  308  -23.7         
06 30.11.20 160 (Ю) 20000 м    ясно 
-11.8 -20.8 47 -12  1032.6  -1.4  714  302           
09 30.11.20 тихо ()   20000 м    ясно 
-19.5 -23.4 71 -20  1035.4  0.2  714  311           
12 30.11.20 тихо ()   20000 м    ясно 
-24.5 -27.4 77 -25  1037.4  0.3  714  318    -10.8       
15 30.11.20 тихо ()   20000 м    ясно 
-27.2 -30.5 73 -27  1037.9  -0.4  714  321           
18 30.11.20 тихо ()   20000 м    ясно 
-28.8 -32.2 72 -29  1038.2  -0.3  714  323           
21 30.11.20 тихо ()   20000 м    ясно 
-30 -33.5 72 -30  1037.5  -1.1  713  325           
00 01.12.20 тихо ()   20000 м    ясно 
-31.5 -35.3 69 -32  1038.1  713  327  -31.5      равномерный
сухой снег
100% 
03 01.12.20 тихо ()   20000 м    1/0 верхняя 
[Ci fib]
-23.3 -27.9 66 -23  1034.3  -0.8  713  316  -31.7         
06 01.12.20 тихо ()   20000 м    8/0 верхняя 
[Cs]
-15.4 -22 57 -15  1030.1  -1.4  711  305           
09 01.12.20 тихо ()   20000 м    8/0 верхняя 
[Cs]
-22 -25.1 76 -22  1032.7  0.3  712  314           
12 01.12.20 тихо ()   20000 м    ясно 
-26.2 -29.4 74 -26  1034.1  -0.1  712  319    -15.2       
15 01.12.20 тихо ()   20000 м    ясно 
-28.2 -31.6 73 -28  1035.1  0.3  712  322           
18 01.12.20 тихо ()   20000 м    ясно 
-29.5 -33 72 -30  1035.5  0.1  712  323           
21 01.12.20 тихо ()   20000 м    ясно 
-30 -33.6 71 -30  1034.8  -0.8  711  324           
00 02.12.20 тихо ()   20000 м    4/0 верхняя 
[Cs]
-30.8 -34.4 71 -31  1033.9  -1.1  710  324  -30.9      равномерный
сухой снег
100% 
03 02.12.20 тихо ()   20000 м    10/0 верхняя 
[Cs]
-23.7 -27.4 71 -24  1030.3  -1  710  315           
06 02.12.20 тихо ()   20000 м    10/0 средняя, верхняя 
[Ac As|Cs]
-16.2 -22.1 60 -16  1026.7  -0.9  709  305           
09 02.12.20 090 (В) 20000 м    6/0 верхняя 
[Cs]
-18.2 -22.4 70 -18  1028.2  0.8  710  308           
12 02.12.20 тихо ()   50000 м    10/0 средняя, верхняя 
[Ac As|Cs]
-21 -23.6 80 -21  1029  -0.2  709  311    -15.9       
15 02.12.20 тихо ()   20000 м    10/0 средняя, верхняя 
[Ac As|Cs]
-18.8 -22 76 -19  1026.6  -0.2  708  308           
18 02.12.20 300 (СЗ) 20000 м    10/0 средняя 
[Ac As]
-14.3 -17.7 75 -16  1022.7  -2.2  707  302           
21 02.12.20 280 (З) 20000 м    10/4 600 м кучево-дожд., средняя 
[Cb calv|Ac As]
-6.2 -15 50 -9  1018.7  -1.3  706  292           
00 03.12.20 тихо () {12}  20000 м    10/4 600 м кучево-дожд., средняя 
[Cb calv|Ac As]
-7.4 -15.9 51 -7  1020.2  706  294  -20.9      равномерный
сухой снег
100% 
Время (UTC), дата Ветер
(°,м/с) 
Видим.   Явления Облачность Т
(°С)
Тd
(°С)
f(%) Тe
(°С)
Pmin
(гПа)
dP
(гПа)
Po
(мм)
O2
(г/м3)
Тmin Tmax R s Состояние
почвы

Для получения пояснительной информации подведите курсор к названию столбца.

ПОГОДА в Могоче - архив

Всё, что Вы хотите узнать о погоде в Могоче - удобно и подробно!

Выберите нужную дату (начиная с 1 января 2019* года) и нажмите кнопку "Найти".
Будут отображены архивные сводки погоды по пункту Могоча, начиная с указанной даты.


Отображать данные в формате CSV (для использования в таблицах Excel)


Внимание! Наш архив погоды предназначен исключительно для личного некоммерческого использования в познавательных целях. Если Вам необходимы официальные справки о состоянии погоды (для производственных, юридических, коммерческих и т.п. целей), обращайтесь в органы Росгидромета.

*Примечание: данная дата относится к архиву по метеостанциям СССР (Россия, СНГ, Балтия).
Архив по метеостанциям Зарубежной Европы и Азии (кроме Китая) хранится 10 дней, по другим регионам земного шара (Китай, Африка, Америка, Австралия, Океания) - 1 день.

Могоча - район местоположения метеостанции


Название, широта, долгота, высота метеостанции:
Могоча 53.8°ш. 119.7°д. 625 м над ур. моря [Российская Федерация]

Дополнительная информация

В oтличие oт бoльшинства пoгoдных сайтoв мы публикуем пoдрoбную метеoинфoрмацию в детальнoм прoфессиoнальнoм фoрмате.

Характеристики температуры и влажнoсти вoздуха измеряются на высoте 2 м в тени вдали oт зданий и деревьев.
Скoрoсть ветра измеряется на высoте 10 м (на урoвне рoста челoвека скoрoсть ветра ниже в 1.5-2 раза). Если метеoстанция нахoдится в гoрoде или в лесу, тo скoрoсть ветра занижена на 2-4 м/с пo сравнению с oткрытым местoм. Скoрoсть ветра над акватoриями крупных рек и oзёр, а также на вершинах хoлмoв на 2-5 м/с выше, чем в oбычных услoвиях.
Атмoсфернoе давление в разных тoчках местнoсти мoжет значительнo oтличаться oт давления на метеoстанции, в зависимoсти oт услoвий рельефа (при пoдъёме на 10 м давление пoнижается примернo на 1 мм рт.ст.).